Regional Weather Roundup
Issued by NWS Sioux Falls, SD

Home | Current Version | Previous Version | Text Only | Print | Product List | Glossary Off
Versions: 1 2 3 4 5 6 7 8 9 10 11 12 13 14 15 16 17 18 19 20 21 22 23 24 25 26 27 28 29 30 31 32 33 34 35 36 37 38 39 40 41 42 43 44 45 46 47 48 49 50

470
ASUS43 KFSD 252010
RWRFSD

WEATHER ROUNDUP FOR SE SOUTH DAKOTA/SW MINNESOTA/NW IOWA
NATIONAL WEATHER SERVICE SIOUX FALLS SD
300 PM CDT MON SEP 25 2017

NOTE: "FAIR" INDICATES FEW OR NO CLOUDS BELOW 12,000 FEET WITH NO
SIGNIFICANT WEATHER AND OR OBSTRUCTIONS TO VISIBILITY.


SDZ038>040-050-052>070-252100-
SOUTHEAST SOUTH DAKOTA

CITY           SKY/WX    TMP DP  RH WIND       PRES   REMARKS
BROOKINGS      CLOUDY    55  49  80 NE9       30.02F
CHAMBERLAIN    CLOUDY    54  49  81 N8        30.07S
HURON          CLOUDY    53  48  83 N13       30.06F
MADISON        LGT RAIN  52  52 100 N9        30.04R
MITCHELL       CLOUDY    53  50  89 N12       30.04F
SIOUX FALLS    LGT RAIN  56  54  93 NE8       30.00F
WINNER         CLOUDY    53  46  77 N12       30.09R
YANKTON        LGT RAIN  54  53  97 N13       29.97F
$$

MNZ071-072-080-081-089-090-097-098-252100-
SOUTHWEST MINNESOTA

CITY           SKY/WX    TMP DP  RH WIND       PRES   REMARKS
FAIRMONT       CLOUDY    57  55  94 NW12      29.99S
JACKSON        CLOUDY    54  52  94 VRB5      30.00F
LUVERNE        CLOUDY    54  50  87 N8        29.99F
MARSHALL       CLOUDY    57  50  77 N9        30.02F
MONTEVIDEO     CLOUDY    61  54  77 NE10      30.02F
PIPESTONE      CLOUDY    55  52  88 NE12      29.99F
REDWOOD FALLS  CLOUDY    60  51  72 N7        30.00F
TRACY          CLOUDY    57  53  86 N9        30.01F
WORTHINGTON    LGT RAIN  54  52  94 NE10      29.99F
$$

IAZ001>003-012>014-020>022-031-032-NEZ013-014-SDZ071-252100-
NORTHWEST IOWA

CITY           SKY/WX    TMP DP  RH WIND       PRES   REMARKS
CHEROKEE       CLOUDY    59  59 100 NE12      29.92F
DENISON        PTSUNNY   68  66  94 NE9       29.92F
ESTHERVILLE    CLOUDY    56  56 100 N9        29.98S
LE MARS        CLOUDY    57  55  94 N10       29.96F
ORANGE CITY    CLOUDY    57  57 100 NE9       29.96F
SHELDON        PTSUNNY   55  54  94 N10       29.96F
SIOUX CITY     CLOUDY    59  57  93 N13       29.95F
SPENCER        LGT RAIN  58  56  93 NE13      29.97F
STORM LAKE       N/A     59  57  94 NE13G18   29.93F
$$

ABBREVIATIONS USED IN REMARKS
   TC - TEMPERATURE IN CELSIUS
  WCI - WIND CHILL INDEX
   HX - HEAT INDEX
  VSB - VISIBILITY





USA.gov is the U.S. government's official web portal to all federal, state and local government web resources and services.